Location: Nelson
(41.2830°S, 173.2830°E)
Time: 10:10:57
(UTC+13:00)

Cosmos 2263 Rocket - Pass Details

Date: 24 January 2019
Orbit: 824 x 848 km, 71.0° (Epoch: 21 February)

Event Time Altitude Azimuth Distance (km) Brightness Sun altitude
Rises 23:20:13 0° 217° (SW) 3,412 6.9 -21.5°
Reaches altitude 10° 23:23:05 10° 229° (SW) 2,474 5.7 -21.8°
Maximum altitude 23:27:33 25° 282° (WNW) 1,665 3.9 -22.3°
Enters shadow 23:30:49 15° 325° (NW) 2,128 4.1 -22.6°
